Weather in Nizhniy Voch

Russia / Komi Republic     61°11′59″N   54°10′21″E
temp.,
°C
wind,
m/s
gust,
m/s
humid.,
%
clouds,
%
prec.,
mm/h
press.,
hPa
HPBL,
m
11 april, sun
sun1100:00−1s139952 0.0 102751
03:00−4ssw139937 0.0 102740
06:000sw249880 0.0 1026103
09:00+2sw359695 0.0 1025302
12:00+7sw48715 0.0 10241121
15:00+8sw4117111 0.0 10251292
18:00+5w399162 0.0 1027422
21:00+1wsw311952 0.0 1029265
12 april, mon
mon1200:000wsw312930 0.0 1031297
03:000wsw412895 0.0 1033372
06:00+1wsw311875 0.0 1035479
09:00+5w48660 0.0 1036656
12:00+7w47553 0.0 10371060
15:00+7w38645 0.0 10371103
18:00+2sw22905 0.0 103830
21:00−1sw259028 0.0 103878
13 april, tue
tue1300:000ssw310877 0.0 1037162
03:00+1sw3128278 0.0 1036293
06:00+2sw3128221 0.0 1035349
09:00+7sw48675 0.0 1034512
12:00+10ssw4870100 0.0 1032731
15:00+9ssw41178100 0.0 1029703
18:00+8ssw41385100 0.0 1027522
21:00+8sw41590100 0.0 1025573
14 april, wed
wed1400:00+8sw31194100 0.0 1025397
03:00+7sw3109688 0.0 1025295
06:00+8sw399681 0.0 1024284
09:00+12sw478196 0.0 1023504
12:00+16sw586641 0.0 10221247
15:00+16sw5962100 0.0 10201356
18:00+12sw4116673 0.0 1019380
21:00+10sw4157532 0.0 1017498
15 april, thu
thu1500:00+11wsw51476100 0.0 1016662
03:00+9w3887100 0.0 1017395
06:00+5n3791100 0.9 1019532
09:00+4nnw2596100 2.3 1020624
12:00+3nne2597100 1.9 1020322
15:00+2n2598100 3.2 1020257
18:00+1nne2499100 2.8 1019166
21:00+1nne24100100 5.3 1018191